カタログに戻る

STARLINK-6124

運用中通信VLEO
NORAD 56126·PAYLOAD·🇺🇸 United States

打ち上げ Mar 29, 2023 から Cape Canaveral Space Force Station

Loading…

次のパス (今後24時間)

TLE

最新Source: CelesTrak SupGP

元期: Sep 14, 2026, 20:46 UTC

1 56126C 23046AK  26257.86576389 -.00032678  00000+0 -11836-2 0  2574
2 56126  42.9999 158.6184 0001239 261.1475  49.5275 15.27593975    14

AllMySatでSTARLINK-6124をリアルタイム追跡

Download on the App Store